When you browse on this site, cookies collect data to enhance your experience and personalize the content and advertising you see.
Visit our Privacy Policy to learn more. By continuing to use the site, you agree to this use of cookies and data.
  • In Deutschland
  • Länderverzeichnis
  • Für 7 Tage
  • Wassertemperatur
  • Satellitenkarten
  • Wetterkarte
  • Widgets
  • user-avatar
    Anmelden

    Stündliche Wetter Hrodna

    Heute, 22 Januar, Dienstag

    Zeit Temperatur Niederschläge Wind Luftdruck Luftfeuchtigkeit
    00:00 -6°C° 0 mm 3 m/S 753 mmHg 94%
    01:00 -6°C° 0 mm 3 m/S 753 mmHg 94%
    02:00 -7°C° 0 mm 4 m/S 753 mmHg 93%
    03:00 -7°C° 0 mm 3 m/S 753 mmHg 94%
    04:00 -8°C° 0 mm 3 m/S 753 mmHg 94%
    05:00 -7°C° 0 mm 2 m/S 753 mmHg 94%
    06:00 -8°C° 0 mm 2 m/S 752 mmHg 94%
    07:00 -8°C° 0 mm 2 m/S 752 mmHg 94%
    08:00 -8°C° 0 mm 2 m/S 752 mmHg 94%
    09:00 -8°C° 0 mm 2 m/S 752 mmHg 92%
    10:00 -7°C° 0 mm 2 m/S 752 mmHg 90%
    11:00 -6°C° 0 mm 2 m/S 753 mmHg 88%
    12:00 -6°C° 0 mm 2 m/S 752 mmHg 87%
    13:00 -5°C° 0 mm 2 m/S 752 mmHg 86%
    14:00 -4°C° 0 mm 2 m/S 752 mmHg 85%
    15:00 -5°C° 0 mm 2 m/S 752 mmHg 88%
    16:00 -6°C° 0 mm 2 m/S 751 mmHg 90%
    17:00 -7°C° 0 mm 2 m/S 751 mmHg 92%
    18:00 -7°C° 0 mm 2 m/S 751 mmHg 93%
    19:00 -7°C° 0 mm 2 m/S 751 mmHg 93%
    20:00 -8°C° 0 mm 2 m/S 751 mmHg 94%
    21:00 -8°C° 0 mm 2 m/S 751 mmHg 94%
    22:00 -8°C° 0 mm 2 m/S 751 mmHg 94%
    23:00 -8°C° 0 mm 2 m/S 751 mmHg 94%

    Morgen, 23 Januar, Mittwoch

    Zeit Temperatur Niederschläge Wind Luftdruck Luftfeuchtigkeit
    00:00 -8°C° 0 mm 2 m/S 750 mmHg 95%
    01:00 -9°C° 0 mm 2 m/S 750 mmHg 95%
    02:00 -9°C° 0 mm 2 m/S 750 mmHg 96%
    03:00 -9°C° 0 mm 2 m/S 750 mmHg 96%
    04:00 -10°C° 0 mm 2 m/S 749 mmHg 96%
    05:00 -10°C° 0 mm 2 m/S 749 mmHg 97%
    06:00 -10°C° 0 mm 2 m/S 749 mmHg 96%
    07:00 -12°C° 0 mm 3 m/S 749 mmHg 96%
    08:00 -13°C° 0 mm 3 m/S 749 mmHg 96%
    09:00 -13°C° 0 mm 3 m/S 749 mmHg 94%
    10:00 -12°C° 0 mm 3 m/S 749 mmHg 91%
    11:00 -12°C° 0 mm 4 m/S 749 mmHg 89%
    12:00 -11°C° 0 mm 4 m/S 748 mmHg 89%
    13:00 -11°C° 0 mm 4 m/S 748 mmHg 88%
    14:00 -9°C° 0 mm 3 m/S 748 mmHg 88%
    15:00 -9°C° 0 mm 3 m/S 748 mmHg 89%
    16:00 -9°C° 0 mm 3 m/S 748 mmHg 90%
    17:00 -9°C° 0 mm 3 m/S 748 mmHg 90%
    18:00 -9°C° 0 mm 3 m/S 748 mmHg 90%
    19:00 -10°C° 0 mm 3 m/S 748 mmHg 91%
    20:00 -10°C° 0 mm 3 m/S 748 mmHg 91%
    21:00 -10°C° 0 mm 3 m/S 748 mmHg 91%
    22:00 -12°C° 0 mm 3 m/S 748 mmHg 92%
    23:00 -12°C° 0 mm 3 m/S 749 mmHg 92%

    übermorgen, 24 Januar, Donnerstag

    Zeit Temperatur Niederschläge Wind Luftdruck Luftfeuchtigkeit
    00:00 -12°C° 0 mm 3 m/S 749 mmHg 93%
    01:00 -12°C° 0 mm 2 m/S 749 mmHg 94%
    02:00 -13°C° 0 mm 2 m/S 749 mmHg 95%
    03:00 -13°C° 0 mm 2 m/S 749 mmHg 95%
    04:00 -13°C° 0 mm 2 m/S 749 mmHg 95%
    05:00 -14°C° 0 mm 2 m/S 749 mmHg 95%
    06:00 -14°C° 0 mm 2 m/S 750 mmHg 95%
    07:00 -14°C° 0 mm 2 m/S 750 mmHg 95%
    08:00 -14°C° 0 mm 2 m/S 750 mmHg 95%
    09:00 -14°C° 0 mm 2 m/S 751 mmHg 93%
    10:00 -14°C° 0 mm 3 m/S 751 mmHg 92%
    11:00 -13°C° 0 mm 3 m/S 751 mmHg 90%
    12:00 -12°C° 0 mm 3 m/S 751 mmHg 88%
    13:00 -12°C° 0 mm 3 m/S 751 mmHg 86%
    14:00 -9°C° 0 mm 2 m/S 751 mmHg 84%
    15:00 -9°C° 0 mm 2 m/S 751 mmHg 86%
    16:00 -10°C° 0 mm 2 m/S 752 mmHg 88%
    17:00 -12°C° 0 mm 2 m/S 752 mmHg 90%
    18:00 -12°C° 0 mm 2 m/S 752 mmHg 90%
    19:00 -14°C° 0 mm 3 m/S 752 mmHg 89%
    20:00 -14°C° 0 mm 3 m/S 753 mmHg 89%
    21:00 -13°C° 0 mm 2 m/S 753 mmHg 89%
    22:00 -14°C° 0 mm 2 m/S 753 mmHg 88%
    23:00 -14°C° 0 mm 2 m/S 753 mmHg 88%

    25 Januar, Freitag

    Zeit Temperatur Niederschläge Wind Luftdruck Luftfeuchtigkeit
    00:00 -14°C° 0 mm 2 m/S 753 mmHg 89%
    01:00 -14°C° 0 mm 2 m/S 753 mmHg 89%
    02:00 -14°C° 0 mm 2 m/S 753 mmHg 90%
    03:00 -14°C° 0 mm 2 m/S 753 mmHg 90%
    04:00 -15°C° 0 mm 2 m/S 753 mmHg 90%
    05:00 -15°C° 0 mm 2 m/S 753 mmHg 91%
    06:00 -15°C° 0 mm 2 m/S 753 mmHg 91%
    07:00 -15°C° 0 mm 2 m/S 753 mmHg 91%
    08:00 -15°C° 0 mm 2 m/S 753 mmHg 91%
    09:00 -14°C° 0 mm 2 m/S 753 mmHg 89%
    10:00 -13°C° 0 mm 2 m/S 753 mmHg 87%
    11:00 -14°C° 0 mm 3 m/S 754 mmHg 85%
    12:00 -13°C° 0 mm 3 m/S 753 mmHg 85%
    13:00 -12°C° 0 mm 3 m/S 753 mmHg 84%
    14:00 -10°C° 0 mm 3 m/S 753 mmHg 84%
    15:00 -12°C° 0 mm 3 m/S 753 mmHg 87%
    16:00 -12°C° 0 mm 3 m/S 753 mmHg 90%
    17:00 -12°C° 0 mm 3 m/S 753 mmHg 94%
    18:00 -12°C° 0 mm 3 m/S 753 mmHg 93%
    19:00 -13°C° 0 mm 3 m/S 753 mmHg 93%
    20:00 -13°C° 0 mm 3 m/S 754 mmHg 93%
    21:00 -13°C° 0 mm 3 m/S 753 mmHg 93%
    22:00 -13°C° 0 mm 3 m/S 753 mmHg 93%
    23:00 -12°C° 0 mm 2 m/S 753 mmHg 93%

    26 Januar, Samstag

    Zeit Temperatur Niederschläge Wind Luftdruck Luftfeuchtigkeit
    00:00 -12°C° 0 mm 2 m/S 753 mmHg 93%
    01:00 -12°C° 0 mm 2 m/S 753 mmHg 93%
    02:00 -13°C° 0 mm 2 m/S 753 mmHg 94%
    03:00 -13°C° 0 mm 2 m/S 752 mmHg 94%
    04:00 -13°C° 0 mm 2 m/S 752 mmHg 94%
    05:00 -13°C° 0 mm 2 m/S 752 mmHg 95%
    06:00 -13°C° 0 mm 2 m/S 752 mmHg 95%
    07:00 -13°C° 0 mm 2 m/S 752 mmHg 94%
    08:00 -14°C° 0 mm 2 m/S 752 mmHg 94%
    09:00 -13°C° 0 mm 2 m/S 752 mmHg 93%
    10:00 -12°C° 0 mm 2 m/S 752 mmHg 92%
    11:00 -12°C° 0 mm 2 m/S 752 mmHg 91%
    12:00 -10°C° 0 mm 2 m/S 751 mmHg 90%
    13:00 -10°C° 0 mm 2 m/S 751 mmHg 89%
    14:00 -9°C° 0 mm 2 m/S 751 mmHg 88%
    15:00 -9°C° 0 mm 2 m/S 751 mmHg 89%
    16:00 -12°C° 0 mm 3 m/S 750 mmHg 90%
    17:00 -12°C° 0 mm 3 m/S 750 mmHg 92%
    18:00 -12°C° 0 mm 3 m/S 750 mmHg 92%
    19:00 -12°C° 0 mm 3 m/S 750 mmHg 92%
    20:00 -12°C° 0 mm 3 m/S 750 mmHg 92%
    21:00 -13°C° 0 mm 3 m/S 750 mmHg 92%
    22:00 -13°C° 0 mm 3 m/S 750 mmHg 92%
    23:00 -13°C° 0 mm 3 m/S 750 mmHg 92%

    27 Januar, Sonntag

    Zeit Temperatur Niederschläge Wind Luftdruck Luftfeuchtigkeit
    00:00 -13°C° 0 mm 3 m/S 750 mmHg 92%
    01:00 -13°C° 0 mm 3 m/S 750 mmHg 92%
    02:00 -15°C° 0 mm 4 m/S 750 mmHg 93%
    03:00 -15°C° 0 mm 4 m/S 750 mmHg 93%
    04:00 -15°C° 0 mm 4 m/S 749 mmHg 92%
    05:00 -15°C° 0 mm 4 m/S 749 mmHg 92%
    06:00 -15°C° 0 mm 4 m/S 749 mmHg 92%
    07:00 -15°C° 0 mm 4 m/S 749 mmHg 92%
    08:00 -15°C° 0 mm 4 m/S 749 mmHg 92%
    09:00 -14°C° 0 mm 4 m/S 749 mmHg 91%
    10:00 -14°C° 0 mm 4 m/S 749 mmHg 90%
    11:00 -14°C° 0 mm 4 m/S 749 mmHg 89%
    12:00 -12°C° 0 mm 4 m/S 749 mmHg 88%
    13:00 -12°C° 0 mm 4 m/S 749 mmHg 88%
    14:00 -12°C° 0 mm 4 m/S 749 mmHg 88%
    15:00 -12°C° 0 mm 4 m/S 749 mmHg 88%
    16:00 -13°C° 0 mm 5 m/S 749 mmHg 89%
    17:00 -13°C° 0 mm 5 m/S 749 mmHg 89%
    18:00 -14°C° 0 mm 5 m/S 749 mmHg 89%
    19:00 -14°C° 0 mm 5 m/S 749 mmHg 90%
    20:00 -15°C° 0 mm 5 m/S 749 mmHg 90%
    21:00 -15°C° 0 mm 5 m/S 750 mmHg 90%
    22:00 -15°C° 0 mm 5 m/S 750 mmHg 90%
    23:00 -15°C° 0 mm 5 m/S 750 mmHg 90%
    Mehr zeigen